Retour au catalogue

FENGYUN 1C DEB

ActifSSO
NORAD 31634·DEBRIS·🇨🇳 China

Lancé May 10, 1999 depuis Taiyuan Satellite Launch Center

Loading…

Prochains Passages (prochaines 24 heures)

TLE

FraisSource: Space-Track

Époque: Sep 11, 2026, 20:52 UTC

1 31634U 99025CAQ 26254.86976875  .00000493  00000-0  38689-3 0  9990
2 31634  99.3330 309.8692 0092210 137.6234 223.2096 13.94881114603310

Suivez FENGYUN 1C DEB en temps réel avec AllMySat

Download on the App Store